Flag for Canada Weather past 2 weeks in Waterloo, Ontario, Canada

Now
10 °F

Partly sunny.


Feels Like: -4 °F
Forecast: N/A
Wind: 12 mph from Northwest

Location: Waterloo Well

Current Time: Mar 5, 2015 at 3:35:22 PM

Latest Report: Mar 5, 2015 at 3:00 PM


Visibility: 9 mi

Pressure: 30.37 "Hg

Humidity: 56%

Dew point: -2 °F

Location of WaterlooLocation

Historic Weather in Waterloo — Graph

°F

Waterloo temperature yesterday

Maximum temperature yesterday: 30 °F (at 12:00 AM)
Minimum temperature yesterday: 12 °F (at 11:00 PM)
Average temperature yesterday: 26 °F

Past Weeks' High & Low Weather Summary

 TemperatureHumidityPressure
High32 °F (Mar 3, 8:00 PM)100% (Mar 1, 11:00 PM)30.78 "Hg (Mar 1, 11:00 PM)
Low-15 °F (Feb 20, 7:00 AM)42% (Feb 20, 4:00 PM)29.58 "Hg (Mar 3, 8:00 PM)
Average7 °F77%30.19 "Hg
* Reported Feb 18 2:00 PM — Mar 5 2:00 PM, Waterloo, Weather by CustomWeather, © 2015

Note: Actual official high and low records may vary slightly from our data, if they occured in-between our weather recording intervals... More about our weather records

Advertising

Waterloo weather history for previous 24 hours

 ConditionsComfort  
Time TempWeatherWind HumidityBarometerVisibility
2:00 PM
Thu, Mar 5
9 °FSunny.10 mph61%30.37 "Hg9 mi
1:00 PM9 °FSunny.13 mph61%30.38 "Hg9 mi
12:00 PM7 °FSunny.12 mph66%30.37 "Hg9 mi
11:00 AM5 °FSunny.12 mph66%30.39 "Hg9 mi
10:00 AM5 °FSunny.13 mph66%30.34 "Hg9 mi
9:00 AM1 °FSunny.14 mph78%30.36 "Hg9 mi
8:00 AM0 °FSunny.6 mph78%30.34 "Hg9 mi
7:00 AM0 °FSunny.7 mph78%30.32 "Hg9 mi
6:00 AM0 °FClear.7 mph78%30.32 "Hg9 mi
5:00 AM1 °FClear.7 mph71%30.29 "Hg9 mi
4:00 AM1 °FClear.8 mph71%30.27 "Hg9 mi
3:00 AM3 °FPassing clouds.9 mph72%30.25 "Hg9 mi
2:00 AM5 °FPassing clouds.17 mph66%30.24 "Hg9 mi
1:00 AM7 °FPassing clouds.16 mph61%30.22 "Hg9 mi
12:00 AM10 °FMostly cloudy.20 mph72%30.19 "Hg9 mi
11:00 PM
Wed, Mar 4
12 °FOvercast.15 mph73%30.13 "Hg9 mi
10:00 PM16 °FLight snow. Overcast.23 mph79%30.05 "Hg9 mi
9:00 PM21 °FMostly cloudy.13 mph74%30.02 "Hg9 mi
8:00 PM21 °FOvercast.14 mph80%29.98 "Hg9 mi
7:00 PM23 °FOvercast.14 mph74%29.96 "Hg9 mi
5:00 PM25 °FPartly sunny.13 mph74%29.91 "Hg9 mi
4:04 PM27 °FPartly sunny.14 mph74%29.91 "Hg9 mi
4:03 PM27 °FPartly sunny.15 mph74%29.91 "Hg9 mi
3:00 PM27 °FPartly sunny.14 mph74%29.90 "Hg9 mi
Weather by CustomWeather, © 2015

See weather overviewHow to use our weather pages